Location: Buchholz
(48.4411°N, 14.1731°E)
Time: 06:06:01
(UTC+00:00)

Daily predictions for brighter satellites

Satellite Brightness Start Highest point End
(mag) Time Altitude Azimuth Time Altitude Azimuth Time Altitude Azimuth
Cosmos 2279 Rocket 4.3 15:35:53 10° N 15:41:56 47° ENE 15:47:56 10° SSE
Cosmos 1634 Rocket 4.0 15:39:14 10° N 15:45:26 77° E 15:51:37 10° SSE
Cosmos 1689 Rocket 2.1 15:42:47 10° NNE 15:45:51 87° E 15:48:53 10° SSW
Lacrosse 5 rocket 3.5 15:46:14 10° SSE 15:48:12 13° SE 15:50:08 10° E
BREEZE-M R/B 3.5 15:41:44 10° WSW 15:49:09 78° SSE 15:52:47 10° ENE
NOSS 2-2 (C) 3.8 15:46:20 10° WSW 15:49:55 53° NW 15:54:08 10° NE
COSMOS 2455 3.4 15:44:20 10° SW 15:50:16 58° NW 15:56:14 10° NNE
Helios 1A Rocket 3.2 15:46:55 10° S 15:51:02 75° WSW 15:55:10 10° NNW
COSMOS 2428 3.5 15:46:36 10° SSE 15:51:35 33° ESE 15:56:36 10° NE
Cosmos 1340 2.7 15:48:49 10° N 15:52:34 61° ENE 15:56:19 10° SSE
ISS -3.5 15:50:25 10° WNW 15:53:42 52° N 15:57:00 10° E
H-2A R/B 3.3 15:50:20 10° SE 15:53:43 34° ENE 15:57:06 10° N
CZ-4B R/B 2.7 15:50:21 10° N 15:53:43 43° WNW 15:57:03 10° SW
BREEZE-M DEB (TANK) 3.3 15:49:14 10° WSW 15:56:16 56° S 15:59:23 10° E
SL-4 R/B 3.0 15:54:36 10° SSW 15:57:54 30° SE 16:01:22 10° E
Cosmos 1269 Rocket 4.1 15:55:18 10° S 16:00:32 64° ESE 16:05:48 10° NNE
Cosmos 1707 Rocket 3.9 15:56:49 10° SSE 16:01:03 45° E 16:05:21 10° NNE
Cosmos 494 Rocket 4.0 15:56:04 10° SSW 16:01:19 77° ESE 16:06:36 10° NNE
Cosmos 44 Rocket 4.1 16:01:48 10° NW 16:06:24 54° WSW 16:10:58 10° SSE
Cosmos 1782 2.8 16:03:16 10° S 16:07:16 89° ESE 16:11:17 10° N
Cosmos 1315 Rocket 2.7 16:06:58 10° S 16:10:54 71° E 16:14:55 10° NNE
Cosmos 2333 4.3 16:05:48 10° SSW 16:11:26 67° ESE 16:17:10 10° NNE
STARLINK-67 2.6 16:09:15 10° SW 16:11:59 68° SSE 16:13:53 18° ENE
YAOGAN 6 3.8 16:11:00 10° ESE 16:13:39 20° ENE 16:16:18 10° NNE
CZ-4B R/B 4.3 16:08:46 10° S 16:13:53 49° W 16:19:08 10° NNW
ATLAS 2AS CENTAUR R/B 3.2 16:06:30 10° SW 16:14:31 83° NW 16:22:34 10° NE
Cosmos 1346 Rocket 2.9 16:10:50 10° NNW 16:14:48 81° W 16:18:47 10° S
IRS-1C Rocket 4.1 16:09:42 10° SSE 16:14:59 82° ENE 16:20:17 10° NNW
Meteor 2-6 Rocket 4.2 16:10:06 10° S 16:15:21 57° E 16:20:39 10° NNE
Cosmos 2322 3.7 16:11:18 10° SSW 16:17:00 84° ESE 16:22:45 10° NNE
COSMO-SKYMED 1 3.9 16:16:41 14° NE 16:19:09 21° E 16:22:26 10° SE
Cosmos 1302 Rocket 4.0 16:15:46 10° NNW 16:21:05 87° ENE 16:26:21 10° SSE
Meteor 1-10 Rocket 4.2 16:17:28 10° S 16:22:53 58° E 16:28:22 10° NNE
Cosmos 1400 Rocket 4.5 16:19:21 10° SW 16:23:07 35° WNW 16:26:53 10° N
Cosmos 2251 Rocket 4.3 16:20:14 10° SSE 16:24:53 32° ESE 16:28:34 15° NE
Shenzhou-11 Module 3.9 16:23:48 10° SSW 16:25:46 18° SSE 16:27:23 12° SE
Cosmos 2278 Rocket 2.3 16:21:20 10° NNW 16:26:54 52° NE 16:32:25 10° SE
STARLINK-46 4.1 16:25:44 10° SSW 16:27:59 23° SE 16:28:52 20° ESE
SMAP 3.1 16:25:17 10° SSE 16:29:56 84° WSW 16:34:39 10° NNW
YAOGAN 1 3.5 16:27:36 10° ESE 16:31:08 25° ENE 16:34:40 10° N
Cosmos 1666 3.7 16:30:40 10° NNE 16:33:44 23° ENE 16:36:47 10° SE
SeaSat 1 3.9 16:34:21 17° NE 16:35:00 18° NE 16:38:15 10° N
Cosmos 2360 Rocket 3.1 16:30:28 10° SW 16:35:55 47° NW 16:41:25 10° NNE
Meteor 1-11 Rocket 3.8 16:30:12 10° N 16:36:11 68° ENE 16:42:07 10° SSE
RESURS DK-1 2.5 16:36:10 10° S 16:40:10 52° ESE 16:42:29 23° NE
Cosmos 2369 Rocket 4.0 16:39:26 10° N 16:41:56 13° NNE 16:42:04 13° NNE
SL-16 R/B 4.1 16:40:00 10° ESE 16:40:50 12° ESE 16:40:50 12° ESE
Cosmos 304 Rocket 4.2 16:37:47 10° NNW 16:42:34 64° WSW 16:47:18 10° S
Cosmos 2333 Rocket 2.2 16:37:17 10° SSW 16:43:01 81° ESE 16:48:13 13° NNE
Meteor 1-27 Rocket 3.8 16:39:09 10° S 16:44:42 55° E 16:50:24 10° NNE
Cosmos 1733 Rocket 3.0 16:41:33 10° N 16:45:57 88° E 16:50:20 10° S
USA 215 3.6 16:41:19 17° NE 16:46:15 56° NNW 16:52:36 10° W
CENTAUR R/B 4.4 16:42:31 10° NW 16:50:04 44° WSW 16:58:08 10° S
ERBS 4.0 16:47:41 10° WNW 16:50:46 34° SW 16:53:49 10° SSE
Envisat 2.9 16:47:09 10° SSE 16:52:14 83° ENE 16:57:21 10° NNW
Cosmos 292 Rocket 4.2 16:47:47 10° N 16:52:21 38° ENE 16:55:03 21° ESE
Cosmos 2237 Rocket 2.6 16:50:03 10° S 16:55:20 41° ESE 16:57:53 27° ENE
Cosmos 1812 2.6 16:55:44 10° S 16:59:36 85° E 17:02:32 17° N
Cosmos 2322 Rocket 4.2 16:56:08 10° W 17:00:22 21° NW 17:04:37 10° N
Exosat Rocket 3.5 16:55:22 10° SSW 17:00:45 69° ESE 17:03:51 23° NE
SL-16 R/B 4.4 17:01:59 10° W 17:05:52 18° NW 17:09:46 10° N
SKYMED 2 3.5 17:05:22 27° NNE 17:07:35 61° ESE 17:11:52 10° S
Cosmos 1092 Rocket 4.0 17:01:43 10° S 17:07:51 57° E 17:14:00 10° NNE
Cosmos 1992 Rocket 3.9 17:02:54 10° NNW 17:08:10 86° ENE 17:13:24 10° SSE
Cosmos 1536 2.7 17:04:48 10° N 17:08:52 87° E 17:12:53 10° S
CZ-4 R/B 1.1 17:05:57 10° SSE 17:09:52 70° ENE 17:13:44 10° N
Cosmos 2219 Rocket 2.5 17:08:33 10° SW 17:14:07 64° WNW 17:18:26 17° NNE
Cosmos 2242 Rocket 3.5 17:09:58 10° S 17:14:30 73° E 17:17:13 24° NNE
Cosmos 546 4.4 17:11:37 10° WNW 17:15:28 83° NNE 17:15:54 68° E
NOSS 0 Rocket 3.8 17:11:26 10° SSW 17:17:36 74° ESE 17:21:06 28° NE
Okean-O 3.7 17:15:12 10° S 17:19:27 47° W 17:23:46 10° NNW
Cosmos 1862 Rocket 4.0 17:18:15 10° SSW 17:22:33 60° WNW 17:26:30 12° N
Cosmos 1703 Rocket 3.8 17:20:30 10° S 17:24:19 51° ESE 17:24:19 51° ESE
Cosmos 1980 3.6 17:19:39 10° SSW 17:25:16 73° ESE 17:27:28 38° NE
Cosmos 2297 3.8 17:20:26 10° NNW 17:26:00 49° NE 17:26:43 47° E
Lacrosse 5 rocket 1.2 17:22:33 10° SW 17:26:48 71° SE 17:26:52 71° SE
BREEZE-M DEB (TANK) 2.7 17:22:59 10° WNW 17:27:17 44° SSW 17:27:30 42° SSW
NOSS 3-4 (A) 4.2 17:22:00 10° WSW 17:27:51 46° NW 17:31:33 23° NNE
NOSS 3-4 (C) 4.2 17:22:06 10° WSW 17:27:57 46° NW 17:31:39 23° NNE
ISS -3.1 17:27:12 10° WNW 17:30:12 53° SW 17:30:12 53° SW
Ariane Rocket 4.1 17:37:34 29° NNE 17:37:34 29° NNE 17:40:13 10° N
COSMOS 2428 3.6 17:30:13 10° SW 17:35:40 47° NW 17:39:28 20° NNE
Cosmos 1943 Rocket 3.6 17:31:46 10° NNW 17:34:39 22° NNE 17:34:39 22° NNE
SL-4 R/B 2.0 17:33:25 10° WSW 17:36:58 71° WNW 17:36:58 71° WNW
CSL-04 Rocket 3.6 17:33:29 10° SSE 17:38:46 82° WSW 17:44:06 10° NNW
YAOGAN 6 4.3 17:43:46 10° SSW 17:46:58 32° W 17:50:13 10° NNW
CSL-04 Debris 4.5 17:44:19 10° S 17:49:45 67° WSW 17:55:12 10° NNW
Cosmos 1553 Rocket 3.9 17:45:09 10° N 17:51:28 65° ENE 17:52:39 55° SE
COSMO-SKYMED 1 3.5 17:53:54 31° NNW 17:55:32 45° WNW 17:59:40 10° SW
Cosmos 1428 Rocket 4.3 17:50:36 10° S 17:56:44 81° E 17:59:07 41° NNE
IRS-1A Rocket 4.4 18:00:47 62° NNE 18:00:47 62° NNE 18:05:52 10° NNW
ATLAS 2AS CENTAUR R/B 4.1 17:59:23 10° W 18:06:38 35° NNW 18:10:08 25° NNE
Cosmos 2344 4.5 17:58:12 10° NW 18:06:51 50° NNE 18:08:48 45° ENE
YAOGAN 1 3.9 18:03:00 10° SSW 18:07:03 39° W 18:11:08 10° NNW
Cosmos 2278 Rocket 4.0 18:05:54 10° NW 18:10:42 29° WSW 18:15:29 10° SSW
SeaSat 1 3.7 18:14:08 32° NNW 18:14:08 32° NNW 18:16:48 10° NNW
Cosmos 2026 Rocket 4.1 18:06:27 10° SSW 18:12:30 70° W 18:15:46 29° N
SL-16 R/B 3.5 18:19:55 10° SSW 18:22:46 31° SSW 18:22:46 31° SSW
Cosmos 2369 Rocket 4.0 18:22:04 10° NNW 18:23:51 20° N 18:23:51 20° N
Cosmos 2333 Rocket 4.1 18:23:25 10° W 18:28:00 24° NW 18:30:14 19° N
USA 215 3.9 18:28:40 42° N 18:28:40 42° N 18:34:42 10° WNW
Cosmos 2237 Rocket 3.3 18:34:09 10° WSW 18:39:27 39° NW 18:39:45 39° NW
Cosmos 2219 Rocket 4.5 18:55:47 10° WNW 18:59:15 16° NW 19:00:10 16° NNW
